Time,TemperatureF,DewpointF,PressureIn,WindDirection,WindDirectionDegrees,WindSpeedMPH,WindSpeedGustMPH,Humidity,HourlyPrecipIn,Conditions,Clouds,dailyrainin,SoftwareType,DateUTC
2013-01-26 00:00:00,36.3,36.3,30.29,WSW,249,0.0,1.0,100,0.00,,,0.00,Wunderground v.1.15,2013-01-26 05:00:00,
2013-01-26 00:02:00,36.3,36.3,30.28,WSW,249,1.0,1.0,100,0.00,,,0.00,Wunderground v.1.15,2013-01-26 05:02:00,
2013-01-26 00:03:00,36.3,36.3,30.28,WSW,249,0.0,1.0,100,0.00,,,0.00,Wunderground v.1.15,2013-01-26 05:03:00,
2013-01-26 00:08:00,36.4,36.4,30.29,WSW,249,1.0,1.0,100,0.00,,,0.00,Wunderground v.1.15,2013-01-26 05:08:00,
2013-01-26 00:12:00,36.4,36.4,30.29,WSW,249,0.0,3.0,100,0.00,,,0.00,Wunderground v.1.15,2013-01-26 05:12:00,
2013-01-26 00:17:00,36.4,36.4,30.29,WSW,249,1.0,3.0,100,0.00,,,0.00,Wunderground v.1.15,2013-01-26 05:17:00,
2013-01-26 00:23:00,36.5,36.5,30.29,SW,236,2.0,2.0,100,0.00,,,0.00,Wunderground v.1.15,2013-01-26 05:23:00,
2013-01-26 00:28:00,36.6,36.6,30.29,SW,230,1.0,2.0,100,0.00,,,0.00,Wunderground v.1.15,2013-01-26 05:28:00,
2013-01-26 00:33:00,36.6,36.6,30.29,SW,230,1.0,1.0,100,0.00,,,0.00,Wunderground v.1.15,2013-01-26 05:33:00,
2013-01-26 00:38:00,36.6,36.6,30.29,SW,230,1.0,1.0,100,0.00,,,0.00,Wunderground v.1.15,2013-01-26 05:38:00,
2013-01-26 00:43:00,36.5,36.5,30.29,West,266,3.0,3.0,100,0.00,,,0.00,Wunderground v.1.15,2013-01-26 05:43:00,
2013-01-26 00:49:00,36.4,36.4,30.29,WSW,253,2.0,3.0,100,0.00,,,0.00,Wunderground v.1.15,2013-01-26 05:49:00,
2013-01-26 00:54:00,36.3,36.3,30.29,West,269,1.0,1.0,100,0.00,,,0.00,Wunderground v.1.15,2013-01-26 05:54:00,
2013-01-26 00:59:00,36.3,36.3,30.29,WNW,292,3.0,3.0,100,0.00,,,0.00,Wunderground v.1.15,2013-01-26 05:59:00,
2013-01-26 01:04:00,36.2,36.2,30.29,WNW,292,0.0,2.0,100,0.00,,,0.00,Wunderground v.1.15,2013-01-26 06:04:00,
2013-01-26 01:09:00,36.2,36.2,30.29,WNW,292,1.0,2.0,100,0.00,,,0.00,Wunderground v.1.15,2013-01-26 06:09:00,
2013-01-26 01:15:00,36.2,36.2,30.29,WNW,296,0.0,2.0,100,0.00,,,0.00,Wunderground v.1.15,2013-01-26 06:15:00,
2013-01-26 01:20:00,36.2,36.2,30.28,WNW,296,0.0,1.0,100,0.00,,,0.00,Wunderground v.1.15,2013-01-26 06:20:00,
2013-01-26 01:25:00,36.2,36.2,30.28,WSW,237,3.0,3.0,100,0.00,,,0.00,Wunderground v.1.15,2013-01-26 06:25:00,
2013-01-26 01:30:00,36.2,36.2,30.28,NW,326,0.0,1.0,100,0.00,,,0.00,Wunderground v.1.15,2013-01-26 06:30:00,
2013-01-26 01:36:00,36.2,36.2,30.28,NW,326,1.0,2.0,100,0.00,,,0.00,Wunderground v.1.15,2013-01-26 06:36:00,
2013-01-26 01:41:00,36.2,36.2,30.29,NW,326,1.0,1.0,100,0.00,,,0.00,Wunderground v.1.15,2013-01-26 06:41:00,
2013-01-26 01:46:00,36.2,36.2,30.29,NW,309,0.0,1.0,100,0.00,,,0.00,Wunderground v.1.15,2013-01-26 06:46:00,
2013-01-26 01:51:00,36.1,36.1,30.29,NW,309,1.0,1.0,100,0.00,,,0.00,Wunderground v.1.15,2013-01-26 06:51:00,
2013-01-26 01:56:00,36.1,36.1,30.29,NW,309,0.0,1.0,100,0.00,,,0.00,Wunderground v.1.15,2013-01-26 06:56:00,
2013-01-26 02:01:00,36.1,36.1,30.30,NW,308,0.0,2.0,100,0.00,,,0.00,Wunderground v.1.15,2013-01-26 07:01:00,
2013-01-26 02:06:00,36.1,36.1,30.30,NW,308,0.0,2.0,100,0.00,,,0.00,Wunderground v.1.15,2013-01-26 07:06:00,
2013-01-26 02:11:00,36.1,36.1,30.29,NW,307,1.0,2.0,100,0.00,,,0.00,Wunderground v.1.15,2013-01-26 07:11:00,
2013-01-26 02:16:00,36.0,36.0,30.29,NW,307,0.0,2.0,100,0.00,,,0.00,Wunderground v.1.15,2013-01-26 07:16:00,
2013-01-26 02:21:00,36.0,36.0,30.30,NW,314,0.0,1.0,100,0.00,,,0.00,Wunderground v.1.15,2013-01-26 07:21:00,
2013-01-26 02:26:00,36.0,36.0,30.29,WSW,251,2.0,5.0,100,0.00,,,0.00,Wunderground v.1.15,2013-01-26 07:26:00,
2013-01-26 02:31:00,36.0,36.0,30.29,North,355,0.0,4.0,100,0.00,,,0.00,Wunderground v.1.15,2013-01-26 07:31:00,
2013-01-26 02:36:00,35.9,35.9,30.30,North,355,0.0,4.0,100,0.00,,,0.00,Wunderground v.1.15,2013-01-26 07:36:00,
2013-01-26 02:41:00,35.9,35.9,30.30,NW,318,1.0,3.0,100,0.00,,,0.00,Wunderground v.1.15,2013-01-26 07:41:00,
2013-01-26 02:46:00,35.8,35.8,30.30,WSW,250,0.0,3.0,100,0.00,,,0.00,Wunderground v.1.15,2013-01-26 07:46:00,
2013-01-26 02:51:00,35.8,35.8,30.30,WSW,250,0.0,1.0,100,0.00,,,0.00,Wunderground v.1.15,2013-01-26 07:51:00,
2013-01-26 02:56:00,35.7,35.7,30.30,WSW,255,1.0,4.0,100,0.00,,,0.00,Wunderground v.1.15,2013-01-26 07:56:00,
2013-01-26 03:01:00,35.7,35.7,30.30,NNW,329,1.0,4.0,100,0.00,,,0.00,Wunderground v.1.15,2013-01-26 08:01:00,
2013-01-26 03:06:00,35.7,35.7,30.30,NNW,328,1.0,4.0,100,0.00,,,0.00,Wunderground v.1.15,2013-01-26 08:06:00,
2013-01-26 03:12:00,35.7,35.7,30.30,NW,311,1.0,2.0,100,0.00,,,0.00,Wunderground v.1.15,2013-01-26 08:12:00,
2013-01-26 03:17:00,35.7,35.7,30.30,NW,311,0.0,2.0,100,0.00,,,0.00,Wunderground v.1.15,2013-01-26 08:17:00,
2013-01-26 03:22:00,35.6,35.3,30.30,West,261,0.0,3.0,99,0.00,,,0.00,Wunderground v.1.15,2013-01-26 08:22:00,
2013-01-26 03:27:00,35.6,35.3,30.30,West,261,1.0,3.0,99,0.00,,,0.00,Wunderground v.1.15,2013-01-26 08:27:00,
2013-01-26 03:32:00,35.5,35.2,30.30,WNW,287,1.0,1.0,99,0.00,,,0.00,Wunderground v.1.15,2013-01-26 08:32:00,
2013-01-26 03:37:00,35.5,35.2,30.29,SW,232,0.0,3.0,99,0.00,,,0.00,Wunderground v.1.15,2013-01-26 08:37:00,
2013-01-26 03:42:00,35.5,35.2,30.30,WNW,282,1.0,2.0,99,0.00,,,0.00,Wunderground v.1.15,2013-01-26 08:42:00,
2013-01-26 03:47:00,35.4,34.9,30.30,WSW,245,1.0,3.0,98,0.00,,,0.00,Wunderground v.1.15,2013-01-26 08:47:00,
2013-01-26 03:52:00,35.4,34.9,30.30,NW,315,1.0,2.0,98,0.00,,,0.00,Wunderground v.1.15,2013-01-26 08:52:00,
2013-01-26 03:57:00,35.3,34.8,30.30,NW,315,1.0,2.0,98,0.00,,,0.00,Wunderground v.1.15,2013-01-26 08:57:00,
2013-01-26 04:02:00,35.3,34.8,30.30,WSW,251,1.0,2.0,98,0.00,,,0.00,Wunderground v.1.15,2013-01-26 09:02:00,
2013-01-26 04:07:00,35.2,34.7,30.30,SW,236,0.0,3.0,98,0.00,,,0.00,Wunderground v.1.15,2013-01-26 09:07:00,
2013-01-26 04:12:00,35.1,34.6,30.30,NW,324,1.0,2.0,98,0.00,,,0.00,Wunderground v.1.15,2013-01-26 09:12:00,
2013-01-26 04:17:00,35.1,34.3,30.30,NNW,336,1.0,3.0,97,0.00,,,0.00,Wunderground v.1.15,2013-01-26 09:17:00,
2013-01-26 04:22:00,35.0,34.2,30.30,WNW,302,1.0,2.0,97,0.00,,,0.00,Wunderground v.1.15,2013-01-26 09:22:00,
2013-01-26 04:27:00,34.9,34.1,30.30,North,5,0.0,3.0,97,0.00,,,0.00,Wunderground v.1.15,2013-01-26 09:27:00,
2013-01-26 04:32:00,34.8,34.0,30.30,West,271,1.0,2.0,97,0.00,,,0.00,Wunderground v.1.15,2013-01-26 09:32:00,
2013-01-26 04:37:00,34.8,33.8,30.30,West,262,0.0,3.0,96,0.00,,,0.00,Wunderground v.1.15,2013-01-26 09:37:00,
2013-01-26 04:42:00,34.6,33.6,30.30,WNW,299,0.0,4.0,96,0.00,,,0.00,Wunderground v.1.15,2013-01-26 09:42:00,
2013-01-26 04:47:00,34.5,33.5,30.30,WNW,299,0.0,4.0,96,0.00,,,0.00,Wunderground v.1.15,2013-01-26 09:47:00,
2013-01-26 04:52:00,34.3,33.3,30.30,WNW,299,1.0,2.0,96,0.00,,,0.00,Wunderground v.1.15,2013-01-26 09:52:00,
2013-01-26 04:57:00,34.2,33.2,30.30,WNW,299,0.0,2.0,96,0.00,,,0.00,Wunderground v.1.15,2013-01-26 09:57:00,
2013-01-26 05:02:00,34.2,33.2,30.30,NW,319,2.0,2.0,96,0.00,,,0.00,Wunderground v.1.15,2013-01-26 10:02:00,
2013-01-26 05:07:00,34.2,33.2,30.30,West,279,2.0,6.0,96,0.00,,,0.00,Wunderground v.1.15,2013-01-26 10:07:00,
2013-01-26 05:12:00,34.0,33.0,30.30,SW,221,0.0,4.0,96,0.00,,,0.00,Wunderground v.1.15,2013-01-26 10:12:00,
2013-01-26 05:17:00,33.8,32.8,30.30,ENE,72,1.0,5.0,96,0.00,,,0.00,Wunderground v.1.15,2013-01-26 10:17:00,
2013-01-26 05:22:00,33.7,32.7,30.30,West,279,2.0,2.0,96,0.00,,,0.00,Wunderground v.1.15,2013-01-26 10:22:00,
2013-01-26 05:27:00,33.6,32.6,30.30,WSW,251,0.0,4.0,96,0.00,,,0.00,Wunderground v.1.15,2013-01-26 10:27:00,
2013-01-26 05:32:00,33.5,32.5,30.30,NNW,329,1.0,8.0,96,0.00,,,0.00,Wunderground v.1.15,2013-01-26 10:32:00,
2013-01-26 05:37:00,33.4,32.4,30.30,WSW,242,1.0,8.0,96,0.00,,,0.00,Wunderground v.1.15,2013-01-26 10:37:00,
2013-01-26 05:42:00,33.3,32.3,30.31,WSW,246,1.0,2.0,96,0.00,,,0.00,Wunderground v.1.15,2013-01-26 10:42:00,
2013-01-26 05:47:00,33.2,32.2,30.31,West,268,0.0,3.0,96,0.00,,,0.00,Wunderground v.1.15,2013-01-26 10:47:00,
2013-01-26 05:52:00,33.2,32.2,30.31,West,263,0.0,2.0,96,0.00,,,0.00,Wunderground v.1.15,2013-01-26 10:52:00,
2013-01-26 05:57:00,33.1,32.1,30.31,SW,235,0.0,6.0,96,0.00,,,0.00,Wunderground v.1.15,2013-01-26 10:57:00,
2013-01-26 06:02:00,33.0,32.0,30.31,WSW,242,0.0,2.0,96,0.00,,,0.00,Wunderground v.1.15,2013-01-26 11:02:00,
2013-01-26 06:07:00,33.0,32.0,30.31,WNW,294,2.0,3.0,96,0.00,,,0.00,Wunderground v.1.15,2013-01-26 11:07:00,
2013-01-26 06:12:00,32.9,31.9,30.31,West,277,1.0,3.0,96,0.00,,,0.00,Wunderground v.1.15,2013-01-26 11:12:00,
2013-01-26 06:17:00,32.8,31.8,30.31,West,281,1.0,3.0,96,0.00,,,0.00,Wunderground v.1.15,2013-01-26 11:17:00,
2013-01-26 06:22:00,32.7,31.7,30.31,WSW,250,2.0,3.0,96,0.00,,,0.00,Wunderground v.1.15,2013-01-26 11:22:00,
2013-01-26 06:28:00,32.6,31.6,30.32,West,271,1.0,4.0,96,0.00,,,0.00,Wunderground v.1.15,2013-01-26 11:28:00,
2013-01-26 06:33:00,32.5,31.5,30.32,West,273,1.0,2.0,96,0.00,,,0.00,Wunderground v.1.15,2013-01-26 11:33:00,
2013-01-26 06:38:00,32.4,31.4,30.32,SW,230,1.0,2.0,96,0.00,,,0.00,Wunderground v.1.15,2013-01-26 11:38:00,
2013-01-26 06:43:00,32.3,31.3,30.33,WSW,247,1.0,3.0,96,0.00,,,0.00,Wunderground v.1.15,2013-01-26 11:43:00,
2013-01-26 06:48:00,32.3,31.0,30.33,NNE,32,1.0,4.0,95,0.00,,,0.00,Wunderground v.1.15,2013-01-26 11:48:00,
2013-01-26 06:53:00,32.2,30.9,30.33,West,264,2.0,4.0,95,0.00,,,0.00,Wunderground v.1.15,2013-01-26 11:53:00,
2013-01-26 06:58:00,32.1,30.8,30.33,SW,232,0.0,4.0,95,0.00,,,0.00,Wunderground v.1.15,2013-01-26 11:58:00,
2013-01-26 07:03:00,32.0,30.7,30.33,West,281,1.0,2.0,95,0.00,,,0.00,Wunderground v.1.15,2013-01-26 12:03:00,
2013-01-26 07:08:00,31.9,30.6,30.33,WNW,287,1.0,7.0,95,0.00,,,0.00,Wunderground v.1.15,2013-01-26 12:08:00,
2013-01-26 07:13:00,31.8,30.5,30.33,WNW,300,0.0,2.0,95,0.00,,,0.00,Wunderground v.1.15,2013-01-26 12:13:00,
2013-01-26 07:18:00,31.7,30.2,30.34,NNW,342,1.0,3.0,94,0.00,,,0.00,Wunderground v.1.15,2013-01-26 12:18:00,
2013-01-26 07:23:00,31.6,30.1,30.34,NNW,342,0.0,1.0,94,0.00,,,0.00,Wunderground v.1.15,2013-01-26 12:23:00,
2013-01-26 07:28:00,31.5,30.0,30.34,WSW,257,0.0,2.0,94,0.00,,,0.00,Wunderground v.1.15,2013-01-26 12:28:00,
2013-01-26 07:33:00,31.5,30.0,30.34,WSW,252,1.0,7.0,94,0.00,,,0.00,Wunderground v.1.15,2013-01-26 12:33:00,
2013-01-26 07:38:00,31.4,29.9,30.34,WSW,252,0.0,7.0,94,0.00,,,0.00,Wunderground v.1.15,2013-01-26 12:38:00,
2013-01-26 07:43:00,31.4,29.9,30.34,NNE,13,0.0,2.0,94,0.00,,,0.00,Wunderground v.1.15,2013-01-26 12:43:00,
2013-01-26 07:48:00,31.3,29.8,30.35,NNE,16,6.0,6.0,94,0.00,,,0.00,Wunderground v.1.15,2013-01-26 12:48:00,
2013-01-26 07:53:00,31.3,29.8,30.35,SW,219,1.0,5.0,94,0.00,,,0.00,Wunderground v.1.15,2013-01-26 12:53:00,
2013-01-26 07:59:00,31.3,29.8,30.34,WNW,300,0.0,5.0,94,0.00,,,0.00,Wunderground v.1.15,2013-01-26 12:59:00,
2013-01-26 08:04:00,31.2,29.7,30.34,WSW,244,0.0,2.0,94,0.00,,,0.00,Wunderground v.1.15,2013-01-26 13:04:00,
2013-01-26 08:08:00,31.2,29.7,30.34,West,260,0.0,2.0,94,0.00,,,0.00,Wunderground v.1.15,2013-01-26 13:08:00,
2013-01-26 08:13:00,31.2,29.4,30.34,NNE,18,1.0,1.0,93,0.00,,,0.00,Wunderground v.1.15,2013-01-26 13:13:00,
2013-01-26 08:19:00,31.2,29.4,30.35,NW,320,1.0,3.0,93,0.00,,,0.00,Wunderground v.1.15,2013-01-26 13:19:00,
2013-01-26 08:24:00,31.2,29.4,30.35,WSW,244,0.0,3.0,93,0.00,,,0.00,Wunderground v.1.15,2013-01-26 13:24:00,
2013-01-26 08:29:00,31.2,29.4,30.35,NNE,14,0.0,3.0,93,0.00,,,0.00,Wunderground v.1.15,2013-01-26 13:29:00,
2013-01-26 08:34:00,31.3,29.5,30.35,NNE,14,0.0,1.0,93,0.00,,,0.00,Wunderground v.1.15,2013-01-26 13:34:00,
2013-01-26 08:39:00,31.3,29.5,30.35,SSW,196,0.0,2.0,93,0.00,,,0.00,Wunderground v.1.15,2013-01-26 13:39:00,
2013-01-26 08:44:00,31.4,29.6,30.36,SW,224,0.0,2.0,93,0.00,,,0.00,Wunderground v.1.15,2013-01-26 13:44:00,
2013-01-26 08:49:00,31.4,29.6,30.36,North,360,0.0,2.0,93,0.00,,,0.00,Wunderground v.1.15,2013-01-26 13:49:00,
2013-01-26 08:54:00,31.5,29.7,30.36,NNE,20,1.0,3.0,93,0.00,,,0.00,Wunderground v.1.15,2013-01-26 13:54:00,
2013-01-26 08:59:00,31.6,29.5,30.36,North,360,0.0,3.0,92,0.00,,,0.00,Wunderground v.1.15,2013-01-26 13:59:00,
2013-01-26 09:04:00,31.7,29.9,30.37,North,360,0.0,1.0,93,0.00,,,0.00,Wunderground v.1.15,2013-01-26 14:04:00,
2013-01-26 09:09:00,31.7,29.6,30.38,North,360,1.0,1.0,92,0.00,,,0.00,Wunderground v.1.15,2013-01-26 14:09:00,
2013-01-26 09:14:00,31.8,29.7,30.37,NW,319,0.0,6.0,92,0.00,,,0.00,Wunderground v.1.15,2013-01-26 14:14:00,
2013-01-26 09:19:00,31.8,29.7,30.38,West,279,0.0,9.0,92,0.00,,,0.00,Wunderground v.1.15,2013-01-26 14:19:00,
2013-01-26 09:24:00,31.9,29.8,30.38,West,279,1.0,1.0,92,0.00,,,0.00,Wunderground v.1.15,2013-01-26 14:24:00,
2013-01-26 09:29:00,31.9,29.6,30.38,NE,40,2.0,2.0,91,0.00,,,0.00,Wunderground v.1.15,2013-01-26 14:29:00,
2013-01-26 09:34:00,32.0,29.4,30.38,South,191,1.0,3.0,90,0.00,,,0.00,Wunderground v.1.15,2013-01-26 14:34:00,
2013-01-26 09:39:00,32.0,29.1,30.39,NNE,18,0.0,3.0,89,0.00,,,0.00,Wunderground v.1.15,2013-01-26 14:39:00,
2013-01-26 09:44:00,32.1,28.9,30.39,SW,232,0.0,5.0,88,0.00,,,0.00,Wunderground v.1.15,2013-01-26 14:44:00,
2013-01-26 09:49:00,32.1,28.9,30.39,SW,232,1.0,5.0,88,0.00,,,0.00,Wunderground v.1.15,2013-01-26 14:49:00,
2013-01-26 09:54:00,32.2,28.8,30.40,NNE,25,0.0,2.0,87,0.00,,,0.00,Wunderground v.1.15,2013-01-26 14:54:00,
2013-01-26 09:59:00,32.3,28.6,30.40,NNW,348,0.0,2.0,86,0.00,,,0.00,Wunderground v.1.15,2013-01-26 14:59:00,
2013-01-26 10:04:00,32.3,28.6,30.40,NW,315,0.0,3.0,86,0.00,,,0.00,Wunderground v.1.15,2013-01-26 15:04:00,
2013-01-26 10:09:00,32.4,28.7,30.39,West,274,0.0,3.0,86,0.00,,,0.00,Wunderground v.1.15,2013-01-26 15:09:00,
2013-01-26 10:14:00,32.5,28.2,30.40,WNW,297,1.0,2.0,84,0.00,,,0.00,Wunderground v.1.15,2013-01-26 15:14:00,
2013-01-26 10:19:00,32.6,28.0,30.40,WNW,290,1.0,4.0,83,0.00,,,0.00,Wunderground v.1.15,2013-01-26 15:19:00,
2013-01-26 10:24:00,32.7,28.1,30.40,WNW,290,1.0,2.0,83,0.00,,,0.00,Wunderground v.1.15,2013-01-26 15:24:00,
2013-01-26 10:29:00,32.8,28.2,30.40,WNW,290,1.0,3.0,83,0.00,,,0.00,Wunderground v.1.15,2013-01-26 15:29:00,
2013-01-26 10:34:00,32.9,28.0,30.40,WNW,285,2.0,3.0,82,0.00,,,0.00,Wunderground v.1.15,2013-01-26 15:34:00,
2013-01-26 10:40:00,33.0,27.8,30.40,WNW,285,0.0,0.0,81,0.00,,,0.00,Wunderground v.1.15,2013-01-26 15:40:00,
2013-01-26 10:45:00,33.1,28.2,30.40,WNW,285,0.0,2.0,82,0.00,,,0.00,Wunderground v.1.15,2013-01-26 15:45:00,
2013-01-26 10:50:00,33.3,28.1,30.40,NNW,346,1.0,1.0,81,0.00,,,0.00,Wunderground v.1.15,2013-01-26 15:50:00,
2013-01-26 10:55:00,33.4,28.2,30.40,NNW,346,0.0,2.0,81,0.00,,,0.00,Wunderground v.1.15,2013-01-26 15:55:00,
2013-01-26 11:00:00,33.5,28.3,30.41,North,350,0.0,0.0,81,0.00,,,0.00,Wunderground v.1.15,2013-01-26 16:00:00,
2013-01-26 11:05:00,33.6,28.1,30.41,NW,322,1.0,2.0,80,0.00,,,0.00,Wunderground v.1.15,2013-01-26 16:05:00,
2013-01-26 11:10:00,33.7,28.2,30.41,NW,313,0.0,1.0,80,0.00,,,0.00,Wunderground v.1.15,2013-01-26 16:10:00,
2013-01-26 11:15:00,33.9,28.4,30.41,NE,49,1.0,3.0,80,0.00,,,0.00,Wunderground v.1.15,2013-01-26 16:15:00,
2013-01-26 11:20:00,34.1,28.6,30.41,NE,49,1.0,1.0,80,0.00,,,0.00,Wunderground v.1.15,2013-01-26 16:20:00,
2013-01-26 11:25:00,34.2,28.7,30.41,WNW,284,0.0,2.0,80,0.00,,,0.00,Wunderground v.1.15,2013-01-26 16:25:00,
2013-01-26 11:30:00,34.2,28.4,30.41,WNW,284,2.0,2.0,79,0.00,,,0.00,Wunderground v.1.15,2013-01-26 16:30:00,
2013-01-26 11:35:00,34.2,28.4,30.41,WNW,297,0.0,5.0,79,0.00,,,0.00,Wunderground v.1.15,2013-01-26 16:35:00,
2013-01-26 11:40:00,34.5,28.3,30.41,NNW,343,2.0,4.0,78,0.00,,,0.00,Wunderground v.1.15,2013-01-26 16:40:00,
2013-01-26 11:45:00,34.7,28.5,30.40,SSW,205,1.0,4.0,78,0.00,,,0.00,Wunderground v.1.15,2013-01-26 16:45:00,
2013-01-26 11:50:00,34.9,28.7,30.41,NW,314,1.0,1.0,78,0.00,,,0.00,Wunderground v.1.15,2013-01-26 16:50:00,
2013-01-26 11:55:00,35.2,29.0,30.40,NW,313,2.0,3.0,78,0.00,,,0.00,Wunderground v.1.15,2013-01-26 16:55:00,
2013-01-26 12:00:00,35.5,29.0,30.40,NE,51,1.0,1.0,77,0.00,,,0.00,Wunderground v.1.15,2013-01-26 17:00:00,
2013-01-26 12:05:00,35.7,28.9,30.40,NNW,327,0.0,2.0,76,0.00,,,0.00,Wunderground v.1.15,2013-01-26 17:05:00,
2013-01-26 12:10:00,35.9,29.1,30.39,NW,313,2.0,2.0,76,0.00,,,0.00,Wunderground v.1.15,2013-01-26 17:10:00,
2013-01-26 12:15:00,36.1,29.3,30.39,NE,54,1.0,3.0,76,0.00,,,0.00,Wunderground v.1.15,2013-01-26 17:15:00,
2013-01-26 12:20:00,36.2,29.0,30.39,North,355,0.0,2.0,75,0.00,,,0.00,Wunderground v.1.15,2013-01-26 17:20:00,
2013-01-26 12:25:00,36.4,28.9,30.39,NNE,16,1.0,5.0,74,0.00,,,0.00,Wunderground v.1.15,2013-01-26 17:25:00,
2013-01-26 12:31:00,36.6,28.8,30.39,NNW,336,1.0,5.0,73,0.00,,,0.00,Wunderground v.1.15,2013-01-26 17:31:00,
2013-01-26 12:36:00,36.8,28.3,30.39,WNW,302,1.0,5.0,71,0.00,,,0.00,Wunderground v.1.15,2013-01-26 17:36:00,
2013-01-26 12:41:00,37.0,28.8,30.39,NNE,21,2.0,4.0,72,0.00,,,0.00,Wunderground v.1.15,2013-01-26 17:41:00,
2013-01-26 12:46:00,37.3,28.8,30.38,North,9,0.0,4.0,71,0.00,,,0.00,Wunderground v.1.15,2013-01-26 17:46:00,
2013-01-26 12:51:00,37.5,28.6,30.39,SW,232,0.0,2.0,70,0.00,,,0.00,Wunderground v.1.15,2013-01-26 17:51:00,
2013-01-26 12:56:00,37.8,28.9,30.38,WNW,299,1.0,5.0,70,0.00,,,0.00,Wunderground v.1.15,2013-01-26 17:56:00,
2013-01-26 13:01:00,38.0,28.7,30.39,NW,315,0.0,2.0,69,0.00,,,0.00,Wunderground v.1.15,2013-01-26 18:01:00,
2013-01-26 13:06:00,38.2,28.6,30.39,West,275,0.0,3.0,68,0.00,,,0.00,Wunderground v.1.15,2013-01-26 18:06:00,
2013-01-26 13:11:00,38.4,28.4,30.38,NNW,333,2.0,2.0,67,0.00,,,0.00,Wunderground v.1.15,2013-01-26 18:11:00,
2013-01-26 13:16:00,38.6,28.9,30.38,NNE,17,0.0,2.0,68,0.00,,,0.00,Wunderground v.1.15,2013-01-26 18:16:00,
2013-01-26 13:21:00,38.7,29.0,30.38,West,269,1.0,2.0,68,0.00,,,0.00,Wunderground v.1.15,2013-01-26 18:21:00,
2013-01-26 13:26:00,38.9,29.2,30.37,West,269,0.0,2.0,68,0.00,,,0.00,Wunderground v.1.15,2013-01-26 18:26:00,
2013-01-26 13:31:00,39.1,29.4,30.38,West,269,0.0,1.0,68,0.00,,,0.00,Wunderground v.1.15,2013-01-26 18:31:00,
2013-01-26 13:36:00,39.5,30.2,30.37,West,269,1.0,2.0,69,0.00,,,0.00,Wunderground v.1.15,2013-01-26 18:36:00,
2013-01-26 13:41:00,39.9,30.5,30.37,West,269,0.0,1.0,69,0.00,,,0.00,Wunderground v.1.15,2013-01-26 18:41:00,
2013-01-26 13:46:00,40.4,29.6,30.37,North,9,0.0,3.0,65,0.00,,,0.00,Wunderground v.1.15,2013-01-26 18:46:00,
2013-01-26 13:51:00,40.9,29.7,30.36,NW,321,2.0,2.0,64,0.00,,,0.00,Wunderground v.1.15,2013-01-26 18:51:00,
2013-01-26 13:56:00,41.6,29.5,30.36,NE,34,5.0,6.0,62,0.00,,,0.00,Wunderground v.1.15,2013-01-26 18:56:00,
2013-01-26 14:01:00,41.9,29.4,30.36,NNE,29,1.0,4.0,61,0.00,,,0.00,Wunderground v.1.15,2013-01-26 19:01:00,
2013-01-26 14:06:00,42.2,29.3,30.36,North,360,0.0,4.0,60,0.00,,,0.00,Wunderground v.1.15,2013-01-26 19:06:00,
2013-01-26 14:11:00,42.3,29.0,30.36,North,355,1.0,2.0,59,0.00,,,0.00,Wunderground v.1.15,2013-01-26 19:11:00,
2013-01-26 14:16:00,42.3,29.0,30.36,SW,227,1.0,3.0,59,0.00,,,0.00,Wunderground v.1.15,2013-01-26 19:16:00,
2013-01-26 14:21:00,42.5,28.3,30.36,WNW,286,2.0,3.0,57,0.00,,,0.00,Wunderground v.1.15,2013-01-26 19:21:00,
2013-01-26 14:26:00,42.4,29.1,30.36,NW,306,0.0,3.0,59,0.00,,,0.00,Wunderground v.1.15,2013-01-26 19:26:00,
2013-01-26 14:31:00,42.5,29.2,30.35,NE,41,3.0,6.0,59,0.00,,,0.00,Wunderground v.1.15,2013-01-26 19:31:00,
2013-01-26 14:36:00,42.6,28.8,30.35,West,276,0.0,6.0,58,0.00,,,0.00,Wunderground v.1.15,2013-01-26 19:36:00,
2013-01-26 14:41:00,42.7,28.9,30.36,NNW,344,0.0,1.0,58,0.00,,,0.00,Wunderground v.1.15,2013-01-26 19:41:00,
2013-01-26 14:46:00,43.0,29.2,30.36,WNW,287,1.0,4.0,58,0.00,,,0.00,Wunderground v.1.15,2013-01-26 19:46:00,
2013-01-26 14:51:00,43.5,29.7,30.36,West,278,0.0,3.0,58,0.00,,,0.00,Wunderground v.1.15,2013-01-26 19:51:00,
2013-01-26 14:56:00,43.9,29.6,30.35,NNE,15,0.0,3.0,57,0.00,,,0.00,Wunderground v.1.15,2013-01-26 19:56:00,
2013-01-26 15:01:00,44.3,30.4,30.35,NNE,21,1.0,3.0,58,0.00,,,0.00,Wunderground v.1.15,2013-01-26 20:01:00,
2013-01-26 15:06:00,44.6,29.9,30.35,NNE,15,1.0,5.0,56,0.00,,,0.00,Wunderground v.1.15,2013-01-26 20:06:00,
2013-01-26 15:11:00,44.8,30.0,30.35,SW,225,0.0,3.0,56,0.00,,,0.00,Wunderground v.1.15,2013-01-26 20:11:00,
2013-01-26 15:16:00,45.0,30.7,30.35,SW,221,1.0,3.0,57,0.00,,,0.00,Wunderground v.1.15,2013-01-26 20:16:00,
2013-01-26 15:21:00,45.2,30.4,30.36,SW,223,2.0,3.0,56,0.00,,,0.00,Wunderground v.1.15,2013-01-26 20:21:00,
2013-01-26 15:26:00,44.9,29.7,30.35,SW,223,0.0,3.0,55,0.00,,,0.00,Wunderground v.1.15,2013-01-26 20:26:00,
2013-01-26 15:31:00,44.7,29.1,30.36,NW,312,0.0,1.0,54,0.00,,,0.00,Wunderground v.1.15,2013-01-26 20:31:00,
2013-01-26 15:37:00,44.5,29.3,30.36,NE,44,0.0,4.0,55,0.00,,,0.00,Wunderground v.1.15,2013-01-26 20:37:00,
2013-01-26 15:42:00,44.5,30.2,30.36,North,5,0.0,4.0,57,0.00,,,0.00,Wunderground v.1.15,2013-01-26 20:42:00,
2013-01-26 15:47:00,44.5,29.3,30.36,NNW,348,2.0,4.0,55,0.00,,,0.00,Wunderground v.1.15,2013-01-26 20:47:00,
2013-01-26 15:52:00,44.6,29.9,30.36,NNW,348,0.0,1.0,56,0.00,,,0.00,Wunderground v.1.15,2013-01-26 20:52:00,
2013-01-26 15:57:00,44.8,30.0,30.36,SSE,159,1.0,3.0,56,0.00,,,0.00,Wunderground v.1.15,2013-01-26 20:57:00,
2013-01-26 16:02:00,44.8,29.6,30.36,NNE,31,0.0,2.0,55,0.00,,,0.00,Wunderground v.1.15,2013-01-26 21:02:00,
2013-01-26 16:07:00,44.8,29.6,30.36,NE,42,2.0,2.0,55,0.00,,,0.00,Wunderground v.1.15,2013-01-26 21:07:00,
2013-01-26 16:12:00,44.8,29.6,30.36,NE,42,0.0,1.0,55,0.00,,,0.00,Wunderground v.1.15,2013-01-26 21:12:00,
2013-01-26 16:17:00,44.8,29.6,30.37,NE,34,1.0,3.0,55,0.00,,,0.00,Wunderground v.1.15,2013-01-26 21:17:00,
2013-01-26 16:22:00,44.8,29.6,30.37,NNE,20,1.0,3.0,55,0.00,,,0.00,Wunderground v.1.15,2013-01-26 21:22:00,
2013-01-26 16:27:00,44.8,30.0,30.36,NE,38,2.0,4.0,56,0.00,,,0.00,Wunderground v.1.15,2013-01-26 21:27:00,
2013-01-26 16:32:00,44.8,29.6,30.36,NNE,13,0.0,1.0,55,0.00,,,0.00,Wunderground v.1.15,2013-01-26 21:32:00,
2013-01-26 16:37:00,44.9,29.7,30.37,NNE,28,0.0,4.0,55,0.00,,,0.00,Wunderground v.1.15,2013-01-26 21:37:00,
2013-01-26 16:42:00,45.2,30.4,30.37,NNE,28,3.0,3.0,56,0.00,,,0.00,Wunderground v.1.15,2013-01-26 21:42:00,
2013-01-26 16:47:00,45.3,30.1,30.37,NNE,20,3.0,6.0,55,0.00,,,0.00,Wunderground v.1.15,2013-01-26 21:47:00,
2013-01-26 16:52:00,45.4,29.7,30.37,NNE,24,1.0,5.0,54,0.00,,,0.00,Wunderground v.1.15,2013-01-26 21:52:00,
2013-01-26 16:57:00,45.3,30.1,30.37,NE,44,1.0,5.0,55,0.00,,,0.00,Wunderground v.1.15,2013-01-26 21:57:00,
2013-01-26 17:02:00,45.2,30.4,30.37,NE,53,0.0,3.0,56,0.00,,,0.00,Wunderground v.1.15,2013-01-26 22:02:00,
2013-01-26 17:07:00,45.2,30.9,30.37,NE,53,0.0,3.0,57,0.00,,,0.00,Wunderground v.1.15,2013-01-26 22:07:00,
2013-01-26 17:12:00,45.2,30.4,30.37,NE,53,1.0,1.0,56,0.00,,,0.00,Wunderground v.1.15,2013-01-26 22:12:00,
2013-01-26 17:17:00,45.1,30.8,30.37,NE,48,0.0,2.0,57,0.00,,,0.00,Wunderground v.1.15,2013-01-26 22:17:00,
2013-01-26 17:22:00,44.9,30.6,30.37,SSE,152,1.0,1.0,57,0.00,,,0.00,Wunderground v.1.15,2013-01-26 22:22:00,
2013-01-26 17:27:00,44.8,30.5,30.38,NE,40,0.0,3.0,57,0.00,,,0.00,Wunderground v.1.15,2013-01-26 22:27:00,
2013-01-26 17:32:00,44.6,30.3,30.38,NE,42,0.0,1.0,57,0.00,,,0.00,Wunderground v.1.15,2013-01-26 22:32:00,
2013-01-26 17:37:00,44.3,30.4,30.38,NE,42,1.0,1.0,58,0.00,,,0.00,Wunderground v.1.15,2013-01-26 22:37:00,
2013-01-26 17:42:00,44.1,30.3,30.38,NE,42,0.0,1.0,58,0.00,,,0.00,Wunderground v.1.15,2013-01-26 22:42:00,
2013-01-26 17:47:00,43.8,30.8,30.38,NE,48,0.0,2.0,60,0.00,,,0.00,Wunderground v.1.15,2013-01-26 22:47:00,
2013-01-26 17:52:00,43.4,30.4,30.38,NE,47,0.0,2.0,60,0.00,,,0.00,Wunderground v.1.15,2013-01-26 22:52:00,
2013-01-26 17:57:00,43.1,30.1,30.38,NE,47,0.0,2.0,60,0.00,,,0.00,Wunderground v.1.15,2013-01-26 22:57:00,
2013-01-26 18:02:00,42.8,30.3,30.38,NE,47,0.0,0.0,61,0.00,,,0.00,Wunderground v.1.15,2013-01-26 23:02:00,
2013-01-26 18:07:00,42.4,30.3,30.39,NE,47,0.0,1.0,62,0.00,,,0.00,Wunderground v.1.15,2013-01-26 23:07:00,
2013-01-26 18:12:00,42.1,30.4,30.39,NE,47,0.0,0.0,63,0.00,,,0.00,Wunderground v.1.15,2013-01-26 23:12:00,
2013-01-26 18:17:00,41.7,30.0,30.39,ENE,67,1.0,1.0,63,0.00,,,0.00,Wunderground v.1.15,2013-01-26 23:17:00,
2013-01-26 18:22:00,41.3,30.0,30.39,SE,144,0.0,1.0,64,0.00,,,0.00,Wunderground v.1.15,2013-01-26 23:22:00,
2013-01-26 18:27:00,41.0,30.1,30.39,NNE,31,1.0,4.0,65,0.00,,,0.00,Wunderground v.1.15,2013-01-26 23:27:00,
2013-01-26 18:32:00,40.7,30.2,30.39,NNE,31,0.0,1.0,66,0.00,,,0.00,Wunderground v.1.15,2013-01-26 23:32:00,
2013-01-26 18:37:00,40.4,30.3,30.39,NNE,31,0.0,1.0,67,0.00,,,0.00,Wunderground v.1.15,2013-01-26 23:37:00,
2013-01-26 18:42:00,40.2,30.5,30.40,NNE,31,0.0,1.0,68,0.00,,,0.00,Wunderground v.1.15,2013-01-26 23:42:00,
2013-01-26 18:47:00,39.9,30.5,30.40,SSW,202,0.0,2.0,69,0.00,,,0.00,Wunderground v.1.15,2013-01-26 23:47:00,
2013-01-26 18:52:00,39.7,30.4,30.40,ENE,62,1.0,2.0,69,0.00,,,0.00,Wunderground v.1.15,2013-01-26 23:52:00,
2013-01-26 18:57:00,39.4,30.4,30.41,NE,40,0.0,3.0,70,0.00,,,0.00,Wunderground v.1.15,2013-01-26 23:57:00,
2013-01-26 19:02:00,39.1,30.5,30.40,NE,40,0.0,1.0,71,0.00,,,0.00,Wunderground v.1.15,2013-01-27 00:02:00,
2013-01-26 19:07:00,38.9,30.6,30.40,NE,40,0.0,1.0,72,0.00,,,0.00,Wunderground v.1.15,2013-01-27 00:07:00,
2013-01-26 19:12:00,38.6,30.7,30.40,NE,36,0.0,3.0,73,0.00,,,0.00,Wunderground v.1.15,2013-01-27 00:12:00,
2013-01-26 19:17:00,38.3,30.4,30.41,NE,36,0.0,3.0,73,0.00,,,0.00,Wunderground v.1.15,2013-01-27 00:17:00,
2013-01-26 19:23:00,38.1,30.2,30.41,NE,54,1.0,6.0,73,0.00,,,0.00,Wunderground v.1.15,2013-01-27 00:23:00,
2013-01-26 19:28:00,37.9,30.0,30.42,NE,35,0.0,6.0,73,0.00,,,0.00,Wunderground v.1.15,2013-01-27 00:28:00,
2013-01-26 19:33:00,37.8,30.3,30.42,NE,35,0.0,1.0,74,0.00,,,0.00,Wunderground v.1.15,2013-01-27 00:33:00,
2013-01-26 19:38:00,37.6,30.1,30.41,NE,35,0.0,1.0,74,0.00,,,0.00,Wunderground v.1.15,2013-01-27 00:38:00,
2013-01-26 19:43:00,37.4,29.9,30.42,ENE,59,0.0,0.0,74,0.00,,,0.00,Wunderground v.1.15,2013-01-27 00:43:00,
2013-01-26 19:48:00,37.2,30.0,30.42,ENE,59,0.0,0.0,75,0.00,,,0.00,Wunderground v.1.15,2013-01-27 00:48:00,
2013-01-26 19:53:00,36.9,29.7,30.42,ENE,59,0.0,1.0,75,0.00,,,0.00,Wunderground v.1.15,2013-01-27 00:53:00,
2013-01-26 19:58:00,36.5,29.7,30.42,ENE,59,0.0,1.0,76,0.00,,,0.00,Wunderground v.1.15,2013-01-27 00:58:00,
2013-01-26 20:03:00,36.1,29.3,30.42,ENE,59,0.0,0.0,76,0.00,,,0.00,Wunderground v.1.15,2013-01-27 01:03:00,
2013-01-26 20:08:00,35.7,29.2,30.42,ENE,59,0.0,1.0,77,0.00,,,0.00,Wunderground v.1.15,2013-01-27 01:08:00,
2013-01-26 20:13:00,35.3,29.1,30.42,ENE,59,0.0,0.0,78,0.00,,,0.00,Wunderground v.1.15,2013-01-27 01:13:00,
2013-01-26 20:18:00,35.1,29.2,30.42,ESE,113,0.0,2.0,79,0.00,,,0.00,Wunderground v.1.15,2013-01-27 01:18:00,
2013-01-26 20:23:00,34.9,29.0,30.42,ESE,113,0.0,1.0,79,0.00,,,0.00,Wunderground v.1.15,2013-01-27 01:23:00,
2013-01-26 20:28:00,34.8,29.3,30.42,ESE,113,0.0,1.0,80,0.00,,,0.00,Wunderground v.1.15,2013-01-27 01:28:00,
2013-01-26 20:33:00,34.7,29.2,30.42,ESE,113,0.0,1.0,80,0.00,,,0.00,Wunderground v.1.15,2013-01-27 01:33:00,
2013-01-26 20:38:00,34.6,29.1,30.43,ESE,113,0.0,1.0,80,0.00,,,0.00,Wunderground v.1.15,2013-01-27 01:38:00,
2013-01-26 20:43:00,34.5,29.0,30.43,ESE,113,0.0,0.0,80,0.00,,,0.00,Wunderground v.1.15,2013-01-27 01:43:00,
2013-01-26 20:48:00,34.4,28.9,30.43,ESE,113,0.0,0.0,80,0.00,,,0.00,Wunderground v.1.15,2013-01-27 01:48:00,
2013-01-26 20:53:00,34.2,29.0,30.43,ESE,113,1.0,1.0,81,0.00,,,0.00,Wunderground v.1.15,2013-01-27 01:53:00,
2013-01-26 20:58:00,34.2,29.0,30.43,ESE,113,0.0,1.0,81,0.00,,,0.00,Wunderground v.1.15,2013-01-27 01:58:00,
2013-01-26 21:03:00,34.2,29.0,30.43,ESE,113,0.0,0.0,81,0.00,,,0.00,Wunderground v.1.15,2013-01-27 02:03:00,
2013-01-26 21:08:00,34.2,29.0,30.43,ESE,113,0.0,0.0,81,0.00,,,0.00,Wunderground v.1.15,2013-01-27 02:08:00,
2013-01-26 21:13:00,34.2,29.3,30.43,ESE,113,0.0,0.0,82,0.00,,,0.00,Wunderground v.1.15,2013-01-27 02:13:00,
2013-01-26 21:18:00,34.0,29.1,30.43,ESE,113,0.0,0.0,82,0.00,,,0.00,Wunderground v.1.15,2013-01-27 02:18:00,
2013-01-26 21:23:00,33.8,28.9,30.43,ESE,113,0.0,0.0,82,0.00,,,0.00,Wunderground v.1.15,2013-01-27 02:23:00,
2013-01-26 21:28:00,33.6,28.7,30.44,ESE,113,0.0,0.0,82,0.00,,,0.00,Wunderground v.1.15,2013-01-27 02:28:00,
2013-01-26 21:33:00,33.4,28.8,30.44,ESE,113,0.0,1.0,83,0.00,,,0.00,Wunderground v.1.15,2013-01-27 02:33:00,
2013-01-26 21:38:00,33.3,28.7,30.44,ESE,113,0.0,1.0,83,0.00,,,0.00,Wunderground v.1.15,2013-01-27 02:38:00,
2013-01-26 21:43:00,33.3,29.0,30.44,ESE,113,1.0,1.0,84,0.00,,,0.00,Wunderground v.1.15,2013-01-27 02:43:00,
2013-01-26 21:48:00,33.2,28.9,30.45,ESE,113,0.0,1.0,84,0.00,,,0.00,Wunderground v.1.15,2013-01-27 02:48:00,
2013-01-26 21:53:00,33.3,29.0,30.44,ESE,113,0.0,1.0,84,0.00,,,0.00,Wunderground v.1.15,2013-01-27 02:53:00,
2013-01-26 21:58:00,33.3,29.0,30.45,ESE,113,0.0,1.0,84,0.00,,,0.00,Wunderground v.1.15,2013-01-27 02:58:00,
2013-01-26 22:04:00,33.3,29.0,30.45,ESE,113,0.0,1.0,84,0.00,,,0.00,Wunderground v.1.15,2013-01-27 03:04:00,
2013-01-26 22:09:00,33.3,29.0,30.46,ESE,113,0.0,1.0,84,0.00,,,0.00,Wunderground v.1.15,2013-01-27 03:09:00,
2013-01-26 22:14:00,33.3,29.0,30.46,ESE,113,0.0,1.0,84,0.00,,,0.00,Wunderground v.1.15,2013-01-27 03:14:00,
2013-01-26 22:19:00,33.2,29.2,30.46,ESE,113,0.0,1.0,85,0.00,,,0.00,Wunderground v.1.15,2013-01-27 03:19:00,
2013-01-26 22:24:00,33.2,29.2,30.46,ESE,113,0.0,1.0,85,0.00,,,0.00,Wunderground v.1.15,2013-01-27 03:24:00,
2013-01-26 22:29:00,33.2,29.2,30.46,ESE,113,1.0,1.0,85,0.00,,,0.00,Wunderground v.1.15,2013-01-27 03:29:00,
2013-01-26 22:34:00,33.2,29.2,30.47,East,96,0.0,2.0,85,0.00,,,0.00,Wunderground v.1.15,2013-01-27 03:34:00,
2013-01-26 22:39:00,33.2,29.2,30.47,East,96,0.0,2.0,85,0.00,,,0.00,Wunderground v.1.15,2013-01-27 03:39:00,
2013-01-26 22:44:00,33.2,29.5,30.47,East,96,0.0,0.0,86,0.00,,,0.00,Wunderground v.1.15,2013-01-27 03:44:00,
2013-01-26 22:49:00,33.1,29.4,30.47,East,96,0.0,1.0,86,0.00,,,0.00,Wunderground v.1.15,2013-01-27 03:49:00,
2013-01-26 22:54:00,33.0,29.3,30.47,East,96,0.0,1.0,86,0.00,,,0.00,Wunderground v.1.15,2013-01-27 03:54:00,
2013-01-26 22:59:00,32.8,29.1,30.47,East,96,0.0,1.0,86,0.00,,,0.00,Wunderground v.1.15,2013-01-27 03:59:00,
2013-01-26 23:04:00,32.6,29.2,30.47,East,96,0.0,0.0,87,0.00,,,0.00,Wunderground v.1.15,2013-01-27 04:04:00,
2013-01-26 23:09:00,32.4,29.0,30.47,East,96,0.0,0.0,87,0.00,,,0.00,Wunderground v.1.15,2013-01-27 04:09:00,
2013-01-26 23:14:00,32.2,29.0,30.48,East,80,1.0,2.0,88,0.00,,,0.00,Wunderground v.1.15,2013-01-27 04:14:00,
2013-01-26 23:19:00,32.1,28.9,30.48,East,80,0.0,2.0,88,0.00,,,0.00,Wunderground v.1.15,2013-01-27 04:19:00,
2013-01-26 23:24:00,32.0,28.8,30.48,East,80,0.0,1.0,88,0.00,,,0.00,Wunderground v.1.15,2013-01-27 04:24:00,
2013-01-26 23:29:00,31.9,29.0,30.48,East,80,0.0,1.0,89,0.00,,,0.00,Wunderground v.1.15,2013-01-27 04:29:00,
2013-01-26 23:34:00,31.9,29.0,30.48,East,80,0.0,0.0,89,0.00,,,0.00,Wunderground v.1.15,2013-01-27 04:34:00,
2013-01-26 23:39:00,31.8,28.9,30.48,East,80,0.0,0.0,89,0.00,,,0.00,Wunderground v.1.15,2013-01-27 04:39:00,
2013-01-26 23:44:00,31.8,28.9,30.48,East,80,0.0,0.0,89,0.00,,,0.00,Wunderground v.1.15,2013-01-27 04:44:00,
2013-01-26 23:49:00,31.7,28.8,30.48,East,80,0.0,0.0,89,0.00,,,0.00,Wunderground v.1.15,2013-01-27 04:49:00,
2013-01-26 23:54:00,31.6,28.7,30.48,East,80,0.0,0.0,89,0.00,,,0.00,Wunderground v.1.15,2013-01-27 04:54:00,
2013-01-26 23:59:00,31.5,28.6,30.48,East,80,0.0,0.0,89,0.00,,,0.00,Wunderground v.1.15,2013-01-27 04:59:00,